1516636800.32,31905,5.75,72344.0,-17.27,-45.53,-45.67,0,*6A
1516636801.54,31906,5.75,72340.8,-17.27,-45.53,-45.67,0,*69
1516636802.77,31907,5.75,72342.8,-17.27,-45.73,-45.95,0,*67
1516636803.99,31908,5.75,72342.5,-17.27,-45.67,-45.67,0,*60
1516636805.24,31909,5.75,72342.5,-17.25,-45.73,-45.67,0,*66
1516636806.46,31910,5.75,72344.0,-17.27,-45.53,-45.67,0,*6E
1516636807.72,31911,5.75,72346.3,-17.25,-45.67,-45.73,0,*6F
1516636808.96,31912,5.75,72344.0,-17.25,-45.53,-45.67,0,*6E
1516636810.19,31913,5.75,72342.5,-17.25,-45.67,-45.67,0,*68
1516636811.41,31914,5.75,72342.5,-17.23,-45.53,-45.53,0,*69
1516636812.65,31915,5.75,72338.5,-17.25,-45.53,-45.67,0,*69
1516636813.87,31916,5.75,72342.3,-17.23,-45.53,-45.53,0,*6B
1516636815.08,31917,5.75,72342.5,-17.23,-45.67,-45.67,0,*6A
1516636816.31,31918,5.75,72338.3,-17.23,-45.67,-45.73,0,*60
1516636817.58,31919,5.75,72338.3,-17.25,-45.53,-45.47,0,*67
1516636818.84,31920,5.75,72342.8,-17.25,-45.47,-45.53,0,*6D
1516636820.07,31921,5.75,72340.8,-17.23,-45.41,-45.47,0,*69
1516636821.33,31922,5.75,72342.3,-17.23,-45.47,-45.47,0,*6C
1516636822.59,31923,5.75,72342.3,-17.23,-45.47,-45.47,0,*6D
1516636823.85,31924,5.75,72342.0,-17.21,-45.41,-45.47,0,*6E
1516636825.07,31925,5.75,72340.0,-17.23,-45.21,-45.21,0,*6B
1516636826.3,31926,5.75,72342.8,-17.21,-45.33,-45.61,0,*6D
1516636827.57,31927,5.75,72342.5,-17.21,-45.47,-45.61,0,*6F
1516636828.81,31928,5.75,72336.3,-17.21,-45.61,-45.61,0,*64
1516636830.07,31929,5.75,72342.3,-17.21,-45.47,-45.61,0,*61
1516636831.33,31930,5.75,72344.3,-17.21,-45.61,-45.47,0,*69
1516636832.57,31931,5.75,72342.5,-17.21,-45.61,-45.61,0,*6C
1516636833.83,31932,5.75,72342.0,-17.17,-45.61,-45.73,0,*69
1516636835.07,31933,5.75,72340.3,-17.17,-45.41,-45.53,0,*68
1516636836.31,31934,5.75,72338.5,-17.17,-45.33,-45.33,0,*6C
1516636837.55,31935,5.75,72340.3,-17.17,-45.41,-45.53,0,*6E
1516636838.79,31936,5.75,72340.0,-17.17,-45.61,-45.53,0,*6F
1516636840.07,31937,5.75,72338.8,-17.17,-45.27,-45.33,0,*6A
1516636841.3,31938,5.75,72338.8,-17.17,-45.33,-45.41,0,*65
1516636842.54,31939,5.75,72340.5,-17.17,-45.41,-45.53,0,*62
1516636843.75,31940,5.75,72344.8,-17.13,-45.41,-45.41,0,*6B
1516636844.98,31941,5.75,72340.0,-17.13,-45.53,-45.53,0,*6A
1516636846.23,31942,5.75,72342.0,-17.13,-45.27,-45.41,0,*69
1516636847.48,31943,5.75,72342.3,-17.13,-45.27,-45.33,0,*6D
1516636848.76,31944,5.75,72342.0,-17.11,-45.21,-45.27,0,*6B
1516636849.99,31945,5.75,72340.5,-17.11,-45.33,-45.33,0,*6C
1516636851.29,31946,5.75,72340.3,-17.11,-45.27,-45.27,0,*6F
1516636852.6,31947,5.75,72340.3,-17.11,-45.27,-45.27,0,*6E
1516636853.87,31948,5.75,72342.5,-17.11,-45.27,-45.33,0,*64
1516636855.14,31949,5.75,72342.5,-17.09,-45.47,-45.47,0,*69
1516636856.36,31950,5.75,72342.0,-17.09,-45.53,-45.67,0,*66
1516636857.57,31951,5.75,72342.0,-17.09,-45.67,-45.87,0,*6E
1516636858.81,31952,5.75,72340.3,-17.09,-45.73,-45.53,0,*61
1516636860.08,31953,5.75,72342.8,-17.09,-45.47,-45.47,0,*62
1516636861.29,31954,5.75,72342.3,-17.09,-45.53,-45.67,0,*62
1516636862.51,31955,5.75,72340.3,-17.09,-45.67,-45.67,0,*64
1516636863.74,31956,5.75,72346.5,-17.09,-45.73,-45.87,0,*6C
1516636864.96,31957,5.75,72336.8,-17.09,-45.67,-45.53,0,*61
1516636866.19,31958,5.75,72340.3,-17.09,-45.53,-45.53,0,*69
1516636867.45,31959,5.75,72342.5,-17.07,-45.41,-45.47,0,*60
1516636868.68,31960,5.75,72342.5,-17.09,-45.53,-45.53,0,*62
1516636869.93,31961,5.75,72336.8,-17.07,-45.61,-45.61,0,*6D
1516636871.19,31962,5.75,72342.0,-17.07,-45.41,-45.47,0,*68
1516636872.42,31963,5.75,72338.0,-17.09,-45.33,-45.47,0,*62
1516636873.72,31964,5.75,72340.5,-17.07,-45.47,-45.47,0,*68
1516636874.99,31965,5.75,72340.0,-17.07,-45.27,-45.41,0,*69
1516636876.26,31966,5.75,72344.0,-17.07,-45.47,-45.41,0,*6C
1516636877.54,31967,5.75,72340.0,-17.07,-45.27,-45.21,0,*6D
1516636878.78,31968,5.75,72342.8,-17.07,-45.13,-45.13,0,*64
1516636880.0,31969,5.75,72340.0,-17.05,-45.41,-45.41,0,*67
1516636881.24,31970,5.75,72340.5,-17.05,-45.41,-45.27,0,*6F
1516636882.48,31971,5.75,72342.3,-17.05,-45.41,-45.27,0,*6E
1516636883.72,31972,5.75,72340.8,-17.05,-45.81,-45.61,0,*63
1516636884.93,31973,5.75,72342.5,-17.05,-45.41,-45.21,0,*6A
1516636886.17,31974,5.75,72342.8,-17.03,-45.13,-45.13,0,*6D
1516636887.45,31975,5.75,72338.5,-17.05,-45.27,-45.27,0,*6A
1516636888.7,31976,5.75,72338.0,-17.03,-45.21,-45.21,0,*6F
1516636889.95,31977,5.75,72342.5,-17.03,-45.53,-45.53,0,*6E
1516636891.2,31978,5.75,72340.0,-17.03,-45.13,-45.21,0,*60
1516636892.45,31979,5.75,72342.3,-17.05,-45.27,-45.41,0,*66
1516636893.7,31980,5.75,72340.0,-17.03,-45.21,-45.33,0,*65
1516636894.94,31981,5.75,72340.3,-17.03,-45.41,-45.33,0,*62
1516636896.18,31982,5.75,72342.0,-17.03,-45.41,-45.41,0,*64
1516636897.42,31983,5.75,72340.0,-17.03,-45.33,-45.41,0,*60
1516636898.67,31984,5.75,72340.5,-17.03,-45.53,-45.61,0,*63
1516636899.91,31985,5.75,72342.3,-17.01,-45.61,-45.73,0,*62
1516636901.16,31986,5.75,72342.5,-17.01,-45.53,-45.73,0,*60
1516636902.38,31987,5.75,72342.3,-17.01,-45.61,-45.53,0,*62
1516636903.6,31988,5.75,72338.8,-17.01,-45.61,-45.61,0,*6C
1516636904.86,31989,5.75,72338.8,-17.01,-45.73,-45.81,0,*60
1516636906.1,31990,5.75,72344.5,-17.01,-45.81,-45.95,0,*60
1516636907.34,31991,5.75,72340.3,-17.01,-45.73,-45.61,0,*67
1516636908.6,31992,5.75,72342.0,-17.01,-45.73,-45.73,0,*67
1516636909.82,31993,5.75,72340.0,-17.01,-45.61,-45.61,0,*66
1516636911.04,31994,5.75,72342.3,-17.01,-45.53,-45.61,0,*60
1516636912.26,31995,5.75,72340.5,-17.01,-45.61,-45.61,0,*60
1516636913.52,31996,5.75,72340.5,-16.99,-45.53,-45.53,0,*63
1516636914.78,31997,5.75,72340.5,-17.01,-45.73,-45.81,0,*6F
1516636916.03,31998,5.75,72340.0,-16.99,-45.67,-45.53,0,*6A
1516636917.25,31999,5.75,72340.5,-17.01,-45.61,-45.61,0,*6C
1516636918.47,32000,5.75,72336.3,-17.01,-45.67,-45.53,0,*61
1516636919.72,32001,5.75,72336.5,-16.99,-45.67,-45.61,0,*61
1516636920.96,32002,5.75,72338.8,-17.01,-45.61,-45.73,0,*67
1516636922.2,32003,5.75,72342.3,-17.01,-45.61,-45.73,0,*66
1516636923.45,32004,5.75,72342.3,-16.99,-45.67,-45.67,0,*62
1516636924.69,32005,5.75,72340.3,-16.99,-45.67,-45.67,0,*63
1516636925.93,32006,5.75,72342.8,-16.99,-45.67,-45.67,0,*60
1516636927.23,32007,5.75,72344.0,-16.99,-45.47,-45.73,0,*66
1516636928.44,32008,5.75,72340.8,-16.97,-45.67,-45.67,0,*60
1516636929.68,32009,5.75,72340.8,-16.97,-45.67,-45.73,0,*64
1516636930.95,32010,5.75,72340.8,-16.99,-45.73,-45.87,0,*6C
1516636932.21,32011,5.75,72340.5,-16.99,-45.73,-45.87,0,*6D
1516636933.5,32012,5.75,72340.3,-16.99,-45.73,-45.73,0,*65
1516636934.72,32013,5.75,72338.5,-17.01,-45.95,-45.95,0,*64
1516636935.99,32014,5.75,72338.3,-16.99,-45.87,-46.07,0,*68
1516636937.24,32015,5.75,72342.8,-16.99,-45.95,-45.95,0,*62
1516636938.48,32016,5.75,72340.8,-17.01,-45.73,-45.95,0,*69
1516636939.74,32017,5.75,72340.3,-16.99,-45.73,-45.87,0,*6B
1516636940.99,32018,5.75,72340.8,-16.99,-45.87,-45.87,0,*6F
1516636942.23,32019,5.75,72340.5,-16.99,-45.67,-45.67,0,*6E
1516636943.48,32020,5.75,72342.8,-16.99,-45.53,-45.67,0,*63
1516636944.69,32021,5.75,72336.5,-17.01,-45.33,-45.33,0,*65
1516636945.9,32022,5.75,72342.3,-16.97,-45.33,-45.33,0,*68
1516636947.11,32023,5.75,72342.3,-16.97,-45.33,-45.33,0,*69
1516636948.38,32024,5.75,72340.8,-16.95,-45.53,-45.47,0,*69
1516636949.6,32025,5.75,72338.3,-16.97,-45.33,-45.33,0,*6F
1516636950.84,32026,5.75,72338.0,-16.95,-45.13,-45.13,0,*6E
1516636952.05,32027,5.75,72340.5,-16.97,-45.33,-45.33,0,*6D
1516636953.29,32028,5.75,72338.8,-16.95,-45.53,-45.67,0,*67
1516636954.55,32029,5.75,72342.5,-16.95,-45.53,-45.53,0,*61
1516636955.8,32030,5.75,72340.3,-16.95,-45.53,-45.53,0,*69
1516636957.04,32031,5.75,72340.3,-16.95,-45.67,-45.67,0,*68
1516636958.3,32032,5.75,72338.0,-16.95,-45.67,-45.73,0,*6E
1516636959.55,32033,5.75,72340.5,-16.95,-45.53,-45.67,0,*6D
1516636960.81,32034,5.75,72340.3,-16.95,-45.73,-45.87,0,*66
1516636962.05,32035,5.75,72338.8,-16.95,-45.87,-45.87,0,*6C
1516636963.34,32036,5.75,72336.8,-16.95,-45.73,-45.73,0,*6F
1516636964.63,32037,5.75,72342.0,-16.95,-45.73,-45.73,0,*6E
1516636965.89,32038,5.75,72340.3,-16.95,-45.73,-45.67,0,*64
1516636967.16,32039,5.75,72342.0,-16.95,-45.53,-45.47,0,*65
1516636968.41,32040,5.75,72340.3,-16.91,-45.61,-45.61,0,*6A
1516636969.67,32041,5.75,72342.3,-16.91,-45.47,-45.67,0,*69
1516636970.91,32042,5.75,72342.3,-16.91,-45.61,-45.67,0,*6E
1516636972.15,32043,5.75,72342.8,-16.91,-45.67,-45.67,0,*69
1516636973.43,32044,5.75,72342.3,-16.91,-45.47,-45.61,0,*6A
1516636974.67,32045,5.75,72340.0,-16.91,-45.61,-45.67,0,*69
1516636975.91,32046,5.75,72338.8,-16.89,-45.61,-45.81,0,*6B
1516636977.15,32047,5.75,72338.8,-16.89,-45.61,-45.73,0,*67
1516636978.37,32048,5.75,72342.8,-16.89,-45.61,-45.61,0,*6B
1516636979.62,32049,5.75,72336.0,-16.91,-45.61,-45.67,0,*65
1516636980.84,32050,5.75,72342.8,-16.89,-45.53,-45.61,0,*63
1516636982.05,32051,5.75,72342.8,-16.89,-45.33,-45.33,0,*63
1516636983.26,32052,5.75,72342.8,-16.89,-45.33,-45.41,0,*65
1516636984.54,32053,5.75,72342.5,-16.91,-45.27,-45.41,0,*68
1516636985.78,32054,5.75,72340.8,-16.87,-45.41,-45.41,0,*68
1516636987.0,32055,5.75,72336.3,-16.89,-45.61,-45.61,0,*67
1516636988.24,32056,5.75,72344.0,-16.89,-45.61,-45.73,0,*67
1516636989.48,32057,5.75,72340.0,-16.89,-45.61,-45.73,0,*66
1516636990.69,32058,5.75,72338.0,-16.89,-45.13,-45.13,0,*6A
1516636991.93,32059,5.75,72336.3,-16.87,-45.41,-45.33,0,*60
1516636993.18,32060,5.75,72336.3,-16.87,-45.21,-45.33,0,*6C
1516636994.43,32061,5.75,72338.5,-16.87,-45.53,-45.61,0,*6F
1516636995.67,32062,5.75,72340.0,-16.87,-45.53,-45.61,0,*6C
1516636996.94,32063,5.75,72338.3,-16.87,-45.61,-45.73,0,*6F
1516636998.16,32064,5.75,72342.0,-16.85,-45.53,-45.53,0,*69
1516636999.4,32065,5.75,72342.8,-16.87,-45.41,-45.41,0,*6A
1516637000.64,32066,5.75,72340.0,-16.87,-45.53,-45.53,0,*69
1516637001.87,32067,5.75,72340.5,-16.85,-45.53,-45.53,0,*6A
1516637003.13,32068,5.75,72340.5,-16.87,-45.61,-45.73,0,*64
1516637004.37,32069,5.75,72342.0,-16.87,-45.61,-45.61,0,*66
1516637005.62,32070,5.75,72336.8,-16.87,-45.61,-45.61,0,*6E
1516637006.84,32071,5.75,72342.0,-16.85,-45.53,-45.61,0,*6C
1516637008.05,32072,5.75,72338.3,-16.85,-45.41,-45.53,0,*6D
1516637009.29,32073,5.75,72340.0,-16.85,-45.53,-45.73,0,*6D
1516637010.54,32074,5.75,72338.0,-16.87,-45.53,-45.41,0,*69
1516637011.78,32075,5.75,72342.3,-16.87,-45.41,-45.41,0,*6B
1516637013.02,32076,5.75,72340.5,-16.87,-45.41,-45.53,0,*6B
1516637014.28,32077,5.75,72336.8,-16.87,-45.61,-45.73,0,*6A
1516637015.53,32078,5.75,72340.3,-16.87,-45.53,-45.61,0,*67
1516637016.75,32079,5.75,72342.5,-16.85,-45.61,-45.53,0,*64
1516637017.97,32080,5.75,72340.0,-16.85,-45.53,-45.53,0,*63
1516637019.19,32081,5.75,72342.8,-16.85,-45.53,-45.53,0,*62
1516637020.46,32082,5.75,72340.3,-16.83,-45.47,-45.47,0,*67
1516637021.68,32083,5.75,72342.8,-16.85,-45.53,-45.61,0,*61
1516637022.95,32084,5.75,72340.0,-16.83,-45.47,-45.47,0,*61
1516637024.24,32085,5.75,72340.5,-16.81,-45.47,-45.47,0,*62
1516637025.51,32086,5.75,72340.3,-16.81,-45.47,-45.53,0,*64
1516637026.75,32087,5.75,72342.5,-16.83,-45.67,-45.73,0,*67
1516637027.99,32088,5.75,72340.8,-16.81,-45.67,-45.67,0,*6F
1516637029.22,32089,5.75,72342.3,-16.83,-45.53,-45.87,0,*65
1516637030.49,32090,5.75,72340.0,-16.83,-45.47,-45.47,0,*64
1516637031.74,32091,5.75,72342.0,-16.83,-45.47,-45.53,0,*60
1516637033.01,32092,5.75,72340.3,-16.83,-45.47,-45.47,0,*66
1516637034.23,32093,5.75,72344.5,-16.83,-45.67,-45.87,0,*69
1516637035.49,32094,5.75,72338.3,-16.81,-45.73,-45.87,0,*69
1516637036.73,32095,5.75,72340.5,-16.83,-45.67,-45.73,0,*64
1516637038.02,32096,5.75,72340.8,-16.81,-45.47,-45.47,0,*60
1516637039.27,32097,5.75,72342.5,-16.81,-45.53,-45.53,0,*61
1516637040.57,32098,5.75,72340.5,-16.81,-45.27,-45.27,0,*6E
1516637041.81,32099,5.75,72344.3,-16.81,-45.33,-45.33,0,*6F
1516637043.05,32100,5.75,72340.5,-16.81,-45.53,-45.67,0,*69
1516637044.32,32101,5.75,72340.3,-16.81,-45.53,-45.73,0,*6D
1516637045.59,32102,5.75,72342.3,-16.81,-45.53,-45.73,0,*6E
1516637046.87,32103,5.75,72340.0,-16.81,-45.87,-46.07,0,*66
1516637048.11,32104,5.75,72338.8,-16.81,-45.53,-45.67,0,*6D
1516637049.35,32105,5.75,72342.0,-16.81,-45.13,-45.13,0,*6B
1516637050.62,32106,5.75,72340.3,-16.79,-45.27,-45.27,0,*6F
1516637051.84,32107,5.75,72336.0,-16.79,-45.41,-45.41,0,*6E
1516637053.07,32108,5.75,72342.5,-16.79,-45.41,-45.47,0,*67
1516637054.31,32109,5.75,72340.8,-16.79,-45.41,-45.47,0,*66
1516637055.54,32110,5.75,72340.3,-16.79,-45.41,-45.27,0,*68
1516637056.79,32111,5.75,72340.5,-16.79,-44.99,-45.07,0,*6F
1516637058.0,32112,5.75,72340.8,-16.79,-45.41,-45.41,0,*6A
1516637059.21,32113,5.75,72340.8,-16.79,-45.41,-45.61,0,*69
1516637060.48,32114,5.75,72340.3,-16.77,-45.47,-45.41,0,*64
1516637061.75,32115,5.75,72340.0,-16.77,-45.47,-45.61,0,*67
1516637063.01,32116,5.75,72340.5,-16.79,-45.47,-45.47,0,*6E
1516637064.25,32117,5.75,72342.5,-16.77,-45.41,-45.41,0,*61
1516637065.47,32118,5.75,72340.8,-16.79,-45.61,-45.61,0,*60
1516637066.76,32119,5.75,72340.3,-16.77,-45.81,-45.81,0,*6F
1516637068.03,32120,5.75,72342.8,-16.77,-45.81,-46.01,0,*6E
1516637069.26,32121,5.75,72336.8,-16.79,-45.81,-45.87,0,*6C
1516637070.5,32122,5.75,72338.0,-16.77,-45.67,-45.67,0,*67
1516637071.74,32123,5.75,72340.5,-16.77,-45.61,-45.67,0,*60
1516637073.0,32124,5.75,72342.8,-16.77,-45.47,-45.67,0,*63
1516637074.27,32125,5.75,72340.8,-16.77,-45.47,-45.67,0,*62
1516637075.51,32126,5.75,72338.0,-16.77,-45.61,-45.61,0,*63
1516637076.75,32127,5.75,72340.3,-16.77,-45.61,-45.67,0,*64
1516637078.04,32128,5.75,72338.3,-16.77,-45.81,-45.81,0,*6D
1516637079.31,32129,5.75,72342.3,-16.77,-45.67,-45.81,0,*64
1516637080.58,32130,5.75,72340.3,-16.77,-45.81,-46.01,0,*6F
1516637081.81,32131,5.75,72346.3,-16.75,-45.73,-45.95,0,*6F
1516637083.06,32132,5.75,72340.0,-16.77,-45.67,-45.87,0,*68
1516637084.34,32133,5.75,72342.8,-16.77,-45.47,-45.47,0,*67
1516637085.58,32134,5.75,72338.8,-16.77,-45.41,-45.61,0,*62
1516637086.85,32135,5.75,72338.5,-16.77,-45.47,-45.67,0,*63
1516637088.14,32136,5.75,72338.5,-16.77,-45.47,-45.47,0,*62
1516637089.38,32137,5.75,72340.5,-16.77,-45.61,-45.67,0,*65
1516637090.65,32138,5.75,72342.8,-16.77,-45.47,-45.61,0,*68
1516637091.86,32139,5.75,72340.5,-16.75,-45.41,-45.61,0,*6D
1516637093.08,32140,5.75,72342.8,-16.75,-45.41,-45.53,0,*62
1516637094.3,32141,5.75,72340.0,-16.75,-45.53,-45.61,0,*61
1516637095.54,32142,5.75,72340.5,-16.75,-45.53,-45.73,0,*61
1516637096.83,32143,5.75,72340.8,-16.73,-45.73,-45.73,0,*64
1516637098.05,32144,5.75,72340.5,-16.75,-45.53,-45.61,0,*64
1516637099.29,32145,5.75,72342.0,-16.73,-45.61,-45.61,0,*62
1516637100.53,32146,5.75,72338.8,-16.73,-45.21,-45.41,0,*67
1516637101.77,32147,5.75,72340.8,-16.73,-45.33,-45.21,0,*63
1516637103.0,32148,5.75,72340.0,-16.73,-45.33,-45.41,0,*6A
1516637104.24,32149,5.75,72340.8,-16.73,-45.33,-45.53,0,*68
1516637105.5,32150,5.75,72340.0,-16.73,-45.61,-45.73,0,*65
1516637106.77,32151,5.75,72342.0,-16.73,-45.53,-45.73,0,*65
1516637108.01,32152,5.75,72340.8,-16.69,-45.33,-45.53,0,*69
1516637109.25,32153,5.75,72340.0,-16.73,-45.53,-45.53,0,*65
1516637110.52,32154,5.75,72340.0,-16.73,-45.61,-45.73,0,*61
1516637111.75,32155,5.75,72340.3,-16.73,-45.41,-45.61,0,*61
1516637113.0,32156,5.75,72340.8,-16.73,-45.53,-45.53,0,*60
1516637114.26,32157,5.75,72336.8,-16.69,-45.33,-45.27,0,*6F
1516637115.49,32158,5.75,72340.3,-16.69,-45.13,-45.13,0,*65
1516637116.73,32159,5.75,72342.0,-16.69,-45.13,-45.13,0,*64
1516637118.03,32160,5.75,72340.8,-16.69,-45.27,-45.27,0,*6E
1516637119.26,32161,5.75,72342.5,-16.69,-45.33,-45.33,0,*6F
1516637120.55,32162,5.75,72342.8,-16.69,-45.47,-45.47,0,*6C
1516637121.78,32163,5.75,72340.0,-16.69,-45.33,-45.33,0,*6D
1516637123.01,32164,5.75,72340.8,-16.69,-45.33,-45.33,0,*6A
1516637124.24,32165,5.75,72340.3,-16.69,-45.33,-45.33,0,*6B
1516637125.48,32166,5.75,72338.8,-16.67,-45.47,-45.67,0,*64
1516637126.72,32167,5.75,72340.3,-16.67,-45.47,-45.53,0,*62
1516637127.98,32168,5.75,72340.8,-16.69,-45.47,-45.67,0,*64
1516637129.19,32169,5.75,72338.8,-16.67,-45.33,-45.67,0,*68
1516637130.42,32170,5.75,72340.5,-16.67,-45.33,-45.47,0,*62
1516637131.66,32171,5.75,72336.8,-16.67,-45.47,-45.33,0,*63
1516637132.9,32172,5.75,72338.5,-16.67,-45.47,-45.53,0,*66
1516637134.19,32173,5.69,72338.8,-16.65,-45.47,-45.47,0,*60
1516637135.42,32174,5.75,72340.0,-16.63,-45.41,-45.47,0,*67
1516637136.66,32175,5.75,72342.8,-16.65,-45.61,-45.61,0,*66
1516637137.89,32176,5.75,72342.3,-16.65,-45.41,-45.41,0,*65
1516637139.15,32177,5.75,72338.5,-16.65,-45.41,-45.47,0,*62
1516637140.36,32178,5.75,72342.8,-16.67,-45.33,-45.53,0,*6F
1516637141.59,32179,5.75,72342.8,-16.67,-45.33,-45.47,0,*6B
1516637142.83,32180,5.75,72340.0,-16.65,-45.41,-45.61,0,*6E
1516637144.08,32181,5.75,72340.3,-16.65,-45.41,-45.47,0,*6B
1516637145.32,32182,5.75,72338.5,-16.63,-45.41,-45.47,0,*6E
1516637146.61,32183,5.75,72340.5,-16.65,-45.27,-45.47,0,*69
1516637147.87,32184,5.75,72338.0,-16.65,-45.47,-45.61,0,*6C
1516637149.15,32185,5.75,72338.3,-16.65,-45.81,-45.81,0,*69
1516637150.42,32186,5.75,72336.5,-16.65,-45.47,-45.61,0,*6E
1516637151.67,32187,5.75,72336.5,-16.65,-45.41,-45.47,0,*6D
1516637152.93,32188,5.75,72338.0,-16.63,-45.47,-45.47,0,*62
1516637154.17,32189,5.75,72342.3,-16.63,-45.61,-45.81,0,*6D
1516637155.46,32190,5.75,72340.5,-16.65,-45.47,-45.81,0,*67
1516637156.68,32191,5.75,72342.0,-16.63,-45.61,-45.61,0,*6A
1516637157.94,32192,5.75,72340.8,-16.65,-45.67,-45.81,0,*67
1516637159.2,32193,5.75,72340.3,-16.63,-45.47,-45.47,0,*68
1516637160.49,32194,5.75,72338.3,-16.65,-45.47,-45.81,0,*63
1516637161.73,32195,5.75,72342.3,-16.63,-45.27,-45.41,0,*6E
1516637163.0,32196,5.75,72342.0,-16.65,-45.61,-45.81,0,*65
1516637164.21,32197,5.75,72340.8,-16.63,-45.61,-45.67,0,*6A
1516637165.45,32198,5.75,72340.8,-16.63,-45.47,-45.61,0,*67
1516637166.68,32199,5.75,72338.5,-16.63,-45.47,-45.61,0,*66
1516637167.94,32200,5.75,72336.8,-16.63,-45.81,-45.81,0,*61
1516637169.18,32201,5.75,72338.8,-16.63,-45.47,-45.61,0,*64
1516637170.47,32202,5.75,72336.8,-16.65,-45.47,-45.47,0,*65
1516637171.74,32203,5.75,72338.3,-16.61,-44.99,-44.93,0,*6A
1516637172.99,32204,5.75,72342.3,-16.65,-45.41,-45.27,0,*63
1516637174.24,32205,5.75,72342.3,-16.63,-45.27,-45.21,0,*62
1516637175.47,32206,5.75,72338.0,-16.61,-45.33,-45.41,0,*60
1516637176.71,32207,5.75,72338.5,-16.61,-45.41,-45.61,0,*66
1516637177.93,32208,5.75,72342.3,-16.59,-45.41,-45.53,0,*63
1516637179.17,32209,5.75,72340.5,-16.61,-45.41,-45.53,0,*69
1516637180.41,32210,5.75,72338.8,-16.61,-45.41,-45.53,0,*61
1516637181.69,32211,5.75,72340.0,-16.61,-45.73,-45.73,0,*63
1516637182.9,32212,5.75,72340.5,-16.63,-45.87,-45.95,0,*61
1516637184.14,32213,5.75,72342.5,-16.61,-45.61,-45.61,0,*61
1516637185.4,32214,5.75,72338.8,-16.61,-45.61,-45.73,0,*65
1516637186.64,32215,5.75,72342.3,-16.61,-45.53,-45.61,0,*66
1516637187.89,32216,5.75,72342.3,-16.59,-45.53,-45.73,0,*6D
1516637189.15,32217,5.75,72336.5,-16.61,-45.61,-45.73,0,*66
1516637190.39,32218,5.75,72338.0,-16.59,-45.61,-45.73,0,*62
1516637191.63,32219,5.75,72338.0,-16.61,-45.61,-45.61,0,*6B
1516637192.85,32220,5.75,72340.3,-16.59,-45.61,-45.61,0,*6A
1516637194.09,32221,5.75,72340.0,-16.59,-45.61,-45.73,0,*68
1516637195.35,32222,5.75,72342.5,-16.59,-45.73,-45.73,0,*68
1516637196.63,32223,5.75,72342.5,-16.61,-45.73,-45.73,0,*62
1516637197.86,32224,5.75,72338.5,-16.59,-45.81,-45.61,0,*60
1516637199.15,32225,5.75,72340.0,-16.61,-45.73,-45.81,0,*69
1516637200.43,32226,5.75,72336.5,-16.61,-45.81,-45.81,0,*67
1516637201.72,32227,5.69,72336.8,-16.61,-45.81,-45.81,0,*66
1516637202.98,32228,5.75,72336.5,-16.61,-45.61,-45.73,0,*6A
1516637204.24,32229,5.75,72340.3,-16.59,-45.73,-45.81,0,*6E
1516637205.5,32230,5.75,72338.8,-16.59,-45.73,-45.81,0,*66
1516637206.79,32231,5.75,72338.8,-16.61,-45.81,-45.81,0,*61
1516637208.05,32232,5.75,72340.5,-16.59,-45.73,-45.81,0,*64
1516637209.31,32233,5.75,72340.0,-16.61,-45.61,-45.73,0,*60
1516637210.57,32234,5.75,72338.3,-16.61,-45.87,-45.73,0,*6F
1516637211.85,32235,5.69,72338.0,-16.61,-45.81,-45.81,0,*65
1516637213.11,32236,5.75,72338.5,-16.61,-45.87,-45.81,0,*60
1516637214.38,32237,5.75,72336.3,-16.59,-45.81,-45.81,0,*6C
1516637215.63,32238,5.75,72342.0,-16.61,-45.73,-45.87,0,*63
1516637216.9,32239,5.75,72342.3,-16.59,-45.81,-45.81,0,*62
1516637218.18,32240,5.75,72340.3,-16.61,-45.73,-45.73,0,*67
1516637219.46,32241,5.75,72336.8,-16.61,-45.73,-45.73,0,*66
1516637220.7,32242,5.75,72340.0,-16.61,-46.01,-45.87,0,*68
1516637221.97,32243,5.75,72340.8,-16.59,-46.07,-46.07,0,*6F
1516637223.18,32244,5.75,72342.5,-16.59,-45.87,-45.87,0,*68
1516637224.47,32245,5.75,72340.0,-16.61,-45.73,-45.81,0,*6F
1516637225.7,32246,5.75,72338.5,-16.61,-45.87,-45.87,0,*61
1516637226.96,32247,5.75,72340.5,-16.59,-45.81,-45.81,0,*6B
1516637228.24,32248,5.75,72338.8,-16.61,-46.07,-46.01,0,*69
1516637229.46,32249,5.75,72338.5,-16.59,-46.01,-46.01,0,*65
1516637230.71,32250,5.75,72342.8,-16.61,-45.87,-46.01,0,*6B
1516637231.98,32251,5.75,72340.0,-16.61,-46.07,-46.01,0,*61
1516637233.26,32252,5.75,72342.3,-16.61,-45.81,-45.81,0,*64
1516637234.53,32253,5.75,72342.5,-16.59,-45.81,-45.81,0,*6E
1516637235.77,32254,5.75,72340.3,-16.61,-46.01,-46.01,0,*62
1516637237.05,32255,5.75,72338.5,-16.61,-46.07,-46.01,0,*65
1516637238.27,32256,5.75,72340.3,-16.59,-46.01,-45.87,0,*66
1516637239.54,32257,5.69,72338.0,-16.63,-46.07,-46.07,0,*63
1516637240.8,32258,5.75,72338.8,-16.61,-46.07,-45.87,0,*65
1516637242.07,32259,5.69,72336.8,-16.63,-46.07,-46.15,0,*6E
1516637243.34,32260,5.69,72338.5,-16.63,-46.15,-46.15,0,*67
1516637244.61,32261,5.75,72340.3,-16.63,-46.07,-46.15,0,*65
1516637245.88,32262,5.75,72338.3,-16.63,-46.07,-46.07,0,*65
1516637247.13,32263,5.75,72338.5,-16.63,-45.95,-46.07,0,*6C
1516637248.4,32264,5.75,72340.0,-16.63,-46.27,-46.15,0,*62
1516637249.67,32265,5.69,72338.5,-16.63,-46.27,-46.15,0,*63
1516637250.95,32266,5.75,72340.5,-16.63,-46.15,-46.07,0,*62
1516637252.22,32267,5.75,72340.8,-16.63,-46.15,-46.15,0,*60
1516637253.43,32268,5.69,72336.3,-16.63,-45.95,-45.95,0,*6F
1516637254.67,32269,5.75,72340.0,-16.63,-45.95,-46.07,0,*66
1516637255.94,32270,5.69,72338.8,-16.63,-46.07,-46.15,0,*65
1516637257.21,32271,5.75,72342.5,-16.63,-46.07,-46.07,0,*67
1516637258.45,32272,5.69,72338.8,-16.63,-46.07,-45.95,0,*6C
1516637259.72,32273,5.69,72336.8,-16.63,-46.15,-46.07,0,*66
1516637261.02,32274,5.75,72340.5,-16.65,-46.07,-46.07,0,*64
1516637262.29,32275,5.69,72340.3,-16.63,-46.07,-46.15,0,*60
1516637263.58,32276,5.69,72336.5,-16.65,-46.07,-46.07,0,*66
1516637264.79,32277,5.75,72340.8,-16.63,-45.87,-45.87,0,*61
1516637266.09,32278,5.75,72340.3,-16.65,-46.15,-46.07,0,*6B
1516637267.33,32279,5.69,72338.8,-16.63,-45.95,-46.15,0,*64
1516637268.6,32280,5.69,72338.5,-16.63,-46.07,-46.07,0,*69
1516637269.86,32281,5.69,72338.8,-16.65,-46.07,-45.95,0,*66
1516637271.07,32282,5.69,72340.8,-16.63,-45.95,-45.87,0,*68
1516637272.36,32283,5.75,72340.8,-16.65,-46.07,-46.07,0,*6C
1516637273.63,32284,5.75,72340.5,-16.63,-46.07,-46.07,0,*6D
1516637274.93,32285,5.69,72336.0,-16.65,-46.07,-46.07,0,*6A
1516637276.22,32286,5.75,72340.8,-16.65,-46.27,-46.07,0,*6B
1516637277.49,32287,5.75,72340.8,-16.65,-46.35,-46.15,0,*6A
1516637278.76,32288,5.69,72340.8,-16.65,-46.15,-46.35,0,*65
1516637280.03,32289,5.75,72340.5,-16.65,-46.27,-46.35,0,*65
1516637281.25,32290,5.75,72342.8,-16.63,-46.35,-46.35,0,*68
1516637282.55,32291,5.75,72340.3,-16.65,-46.27,-46.27,0,*6F
1516637283.82,32292,5.69,72338.8,-16.65,-46.35,-46.27,0,*6F
1516637285.06,32293,5.75,72340.8,-16.65,-46.35,-46.35,0,*6D
1516637286.3,32294,5.75,72340.8,-16.67,-46.35,-46.41,0,*6B
1516637287.52,32295,5.69,72340.5,-16.67,-46.21,-46.35,0,*6C
1516637288.74,32296,5.75,72340.3,-16.67,-46.21,-46.01,0,*68
1516637290.02,32297,5.75,72340.3,-16.67,-46.15,-46.15,0,*6B
1516637291.26,32298,5.75,72342.0,-16.67,-46.41,-46.35,0,*67
1516637292.48,32299,5.69,72340.5,-16.67,-46.21,-46.21,0,*65
1516637293.77,32300,5.69,72340.0,-16.65,-46.07,-46.15,0,*65
1516637295.02,32301,5.69,72342.0,-16.69,-46.35,-46.21,0,*6E
1516637296.28,32302,5.69,72338.5,-16.69,-46.41,-46.35,0,*6B
1516637297.5,32303,5.69,72338.8,-16.67,-46.35,-46.35,0,*67
1516637298.75,32304,5.69,72338.5,-16.67,-46.21,-46.15,0,*67